Rexburg, ID

2:04 PM MDT on May 23, 2017 (GMT -0600)
Rexburg-Madison County

Weather History for KRXE - June, 2013

Change the Weather History Date:

Saturday, June 15, 2013

  Actual Average Record
Temperature  
Mean Temperature 55 °F 60 °F  
Max Temperature 75 °F 74 °F 85 °F (2003)
Min Temperature 34 °F 45 °F 34 °F (2013)
Degree Days  
Heating Degree Days 10 6  
Month to date heating degree days 70 108  
Since 1 June heating degree days 70 108  
Since 1 July heating degree days 7754 8066  
Cooling Degree Days 0 1  
Month to date cooling degree days 16 3  
Year to date cooling degree days 18 7  
Since 1 June cooling degree days 16 3  
Growing Degree Days 4 (Base 50)    
Moisture  
Dew Point 31 °F    
Average Humidity 54    
Maximum Humidity 92    
Minimum Humidity 15    
Precipitation  
Precipitation 0.00 in 0.05 in 0.24 in (1992)
Month to date precipitation 0.19 0.88  
Year to date precipitation 4.44 6.75  
Sea Level Pressure  
Sea Level Pressure 30.05 in    
Wind  
Wind Speed 3 mph (NE)    
Max Wind Speed 12 mph    
Max Gust Speed 16 mph    
Visibility 10 miles    
Events      
T = Trace of Precipitation, MM = Missing Value Source: NWS Daily Summary

Daily Weather History Graph

Daily Weather History Graph

Search for Another Location

Airport or City:

Trip Planner

Search our weather history database for the weather conditions in past years. The results will help you decide how hot, cold, wet, or windy it might be!

Date:

Astronomy

Jun. 15, 2013 Rise Set
Actual Time 5:44 AM MDT 9:11 PM MDT
Civil Twilight 5:08 AM MDT 9:47 PM MDT
Nautical Twilight 4:20 AM MDT 10:34 PM MDT
Astronomical Twilight 3:21 AM MDT 11:34 PM MDT
Moon 12:35 PM MDT (6/15) 12:37 AM MDT (6/15)
Length of Visible Light 16h 39m
Length of Day
15h 26m
Waxing Crescent, 40% of the Moon is Illuminated
Jun 15
Waxing Crescent
Jun 16
First Quarter
Jun 23
Full
Jun 29
Last Quarter
Jul 8
New

Hourly Weather History & Observations

Time (MDT) Temp. Windchill Dew Point Humidity Pressure Visibility Wind Dir Wind Speed Gust Speed Precip Events Conditions
12:53 AM 42.1 °F 40.2 °F 37.0 °F 82% 30.14 in 10.0 mi NE 3.5 mph - N/A   Clear
1:53 AM 39.9 °F 36.7 °F 37.0 °F 89% 30.13 in 10.0 mi NE 4.6 mph - N/A   Clear
2:53 AM 37.9 °F 34.4 °F 35.1 °F 89% 30.12 in 10.0 mi NE 4.6 mph - N/A   Clear
3:53 AM 37.0 °F 33.3 °F 32.0 °F 82% 30.11 in 10.0 mi NE 4.6 mph - N/A   Clear
4:53 AM 35.1 °F 31.0 °F 30.9 °F 85% 30.12 in 10.0 mi NE 4.6 mph - N/A   Clear
5:53 AM 34.0 °F 29.8 °F 30.0 °F 85% 30.12 in 10.0 mi NNE 4.6 mph - N/A   Clear
6:53 AM 37.0 °F - 30.9 °F 79% 30.12 in 10.0 mi Calm Calm - N/A   Clear
7:53 AM 41.0 °F - 33.1 °F 73% 30.13 in 10.0 mi Calm Calm - N/A   Clear
8:53 AM 48.0 °F - 35.1 °F 61% 30.11 in 10.0 mi North 3.5 mph - N/A   Clear
9:53 AM 53.1 °F - 37.0 °F 55% 30.10 in 10.0 mi East 3.5 mph - N/A   Clear
10:53 AM 60.1 °F - 28.0 °F 30% 30.08 in 10.0 mi Calm Calm - N/A   Clear
11:53 AM 64.9 °F - 24.1 °F 21% 30.06 in 10.0 mi Calm Calm - N/A   Clear
12:53 PM 68.0 °F - 28.0 °F 22% 30.04 in 10.0 mi Calm Calm - N/A   Clear
1:53 PM 71.1 °F - 26.1 °F 19% 30.02 in 10.0 mi WSW 5.8 mph - N/A   Clear
2:53 PM 72.0 °F - 26.1 °F 18% 30.01 in 10.0 mi Calm Calm - N/A   Clear
3:53 PM 73.0 °F - 28.9 °F 20% 30.00 in 10.0 mi SW 4.6 mph - N/A   Clear
4:53 PM 73.9 °F - 23.0 °F 15% 29.99 in 10.0 mi SW 10.4 mph - N/A   Clear
5:53 PM 73.9 °F - 25.0 °F 16% 29.98 in 10.0 mi SSW 6.9 mph - N/A   Clear
6:53 PM 73.0 °F - 27.0 °F 18% 29.96 in 10.0 mi WSW 4.6 mph - N/A   Clear
7:53 PM 73.0 °F - 23.0 °F 15% 29.96 in 10.0 mi Calm Calm - N/A   Clear
8:53 PM 68.0 °F - 33.1 °F 27% 29.96 in 10.0 mi East 4.6 mph - N/A   Clear
9:53 PM 64.9 °F - 30.0 °F 27% 29.95 in 10.0 mi East 3.5 mph - N/A   Clear
10:53 PM 55.0 °F - 39.0 °F 55% 29.97 in 10.0 mi Calm Calm - N/A   Clear
11:53 PM 50.0 °F - 39.0 °F 66% 29.98 in 10.0 mi Variable 3.5 mph - N/A   Clear